Temperature
9 9 9 9 9 10 10 10 10 10 10 10 10 10 10 10 11 10 10 10 10 10 10 10 10 10 10 10 10 10 10 9 9 9 9 10 10 10 10 10 10 10 9
8 8 9 9 9 9 9 9 9 10 10 10 10 10 10 10 10 10 10 10 10 10 10 10 10 10 10 9 9 9 9 9 9 9 9 8 9 9 9 9 9 9 9
8 8 8 8 9 9 9 9 9 9 9 9 9 9 9 9 9 9 9 9 9 9 9 9 9 9 9 9 9 9 9 9 9 8 8 8 8 8 9 9 9 9 9
7 8 8 8 8 8 8 8 8 9 9 9 9 9 9 9 9 9 9 9 9 8 8 9 9 9 9 9 9 8 8 8 8 8 8 8 7 7 7 8 8 8 8
7 7 8 8 8 8 8 8 8 8 8 8 8 8 8 8 8 8 8 8 8 8 8 8 8 8 8 8 8 8 8 7 7 7 7 7 7 7 7 7 7 8 8
7 7 7 7 7 7 7 8 8 8 7 7 7 7 7 7 7 7 7 7 7 7 7 7 7 7 7 7 7 7 7 7 7 7 7 7 7 6 6 6 6 7 7
6 6 6 6 7 7 7 7 7 7 7 7 7 7 6 6 6 6 7 7 7 7 7 7 7 7 7 7 7 7 7 7 6 6 6 6 6 6 6 6 6 6 6
6 6 6 6 6 6 6 7 6 6 6 6 6 6 6 6 6 6 6 6 6 6 6 6 6 6 6 6 6 6 6 6 6 6 6 6 6 6 6 6 5 5 5
5 5 5 5 6 6 6 6 6 6 6 6 6 6 5 5 5 5 5 5 5 5 6 6 6 6 6 6 6 6 6 6 6 6 6 6 6 6 5 5 5 5 4
5 5 5 5 5 5 5 5 5 5 5 5 5 5 5 5 5 5 4 5 5 5 5 5 5 5 5 5 5 5 5 5 5 5 5 5 5 5 5 5 5 5 4
4 4 4 4 4 4 4 5 5 5 5 5 5 4 4 4 4 4 4 4 4 4 4 4 4 4 5 5 5 5 4 4 4 4 4 5 4 4 4 4 4 4 4
4 4 4 4 4 4 4 4 4 4 4 4 4 4 4 4 3 3 3 3 3 4 4 4 4 4 4 4 4 4 4 4 4 4 4 4 4 4 4 4 4 4 4
4 4 4 4 3 3 3 3 3 3 3 3 3 3 3 3 3 3 3 3 3 3 3 3 3 3 3 3 3 3 3 3 3 3 3 3 3 3 3 3 3 3 3
4 3 3 3 3 3 3 3 3 3 3 3 3 3 3 2 2 2 2 2 2 2 2 2 3 3 3 3 3 3 3 3 3 3 3 3 3 3 3 3 3 3 3
3 3 3 3 3 2 2 2 2 2 2 2 2 2 2 2 2 2 2 2 2 2 2 2 2 2 2 2 2 2 2 2 2 2 2 2 2 3 2 2 2 2 2
3 3 2 2 2 2 2 2 2 2 1 1 1 1 1 1 1 1 1 1 1 1 1 1 1 2 1 2 2 2 2 2 2 2 2 2 2 2 2 2 2 2 2
2 2 2 2 2 2 2 1 1 1 1 1 1 1 1 1 0 0 0 0 1 1 1 1 1 1 1 1 1 1 1 1 1 1 2 2 2 2 2 2 2 2 2
2 2 2 2 2 1 1 1 1 1 1 1 0 0 0 0 -0 -0 -0 -0 0 0 0 0 0 1 1 1 1 1 1 1 1 1 1 1 1 1 1 1 1 1 1
2 2 2 1 1 1 1 1 1 0 0 0 0 -0 -0 -0 -0 -0 -0 -0 -0 -0 0 0 0 0 0 0 0 0 0 0 0 0 1 0 1 1 1 1 1 1 1
1 1 1 1 1 1 1 0 0 0 -0 -0 -0 -0 -1 -1 -1 -1 -1 -1 -1 -0 -0 -0 -0 -0 0 0 0 -0 -0 -0 -0 0 -0 -0 0 0 0 0 -0 -0 -0
1 1 1 1 1 0 0 -0 -0 -0 -0 -0 -1 -1 -1 -1 -1 -1 -1 -1 -1 -1 -1 -0 -0 -0 -0 -0 -0 -1 -1 -1 -0 -0 -0 -0 -0 -0 -0 -0 -1 -1 -1
0 0 0 0 0 -0 -0 -0 -0 -1 -1 -1 -1 -1 -1 -1 -1 -1 -1 -1 -1 -1 -1 -1 -1 -1 -1 -1 -1 -1 -1 -1 -1 -1 -1 -1 -1 -1 -1 -1 -1 -1 -1
-0 -0 -0 -0 -0 -1 -1 -1 -1 -1 -1 -1 -2 -1 -1 -1 -1 -1 -1 -1 -2 -2 -2 -2 -2 -1 -1 -1 -1 -1 -1 -1 -1 -1 -2 -2 -2 -2 -2 -2 -2 -2 -2
-1 -1 -1 -1 -1 -1 -1 -1 -2 -2 -2 -2 -2 -2 -2 -1 -1 -2 -2 -2 -2 -2 -2 -2 -2 -2 -2 -2 -2 -2 -2 -2 -2 -2 -2 -2 -2 -2 -2 -2 -2 -2 -2
-1 -1 -1 -1 -1 -1 -1 -2 -2 -2 -2 -2 -2 -2 -2 -2 -2 -2 -2 -2 -2 -3 -3 -3 -3 -3 -3 -3 -3 -2 -2 -2 -3 -3 -3 -3 -3 -3 -3 -3 -3 -3 -3
-1 -1 -2 -2 -2 -2 -2 -2 -2 -2 -2 -2 -2 -2 -3 -3 -3 -3 -2 -2 -3 -3 -3 -3 -3 -3 -3 -3 -3 -3 -3 -3 -3 -3 -3 -3 -3 -3 -3 -3 -3 -3 -3
Wind_Speed
5 3 3 2 2 2 2 2 1 2 2 2 2 2 1 1 1 1 2 2 2 3 3 2 2 2 2 2 2 1 1 0 0 0 1 2 2 3 3 3 3 4 7
3 3 3 2 3 3 3 2 2 2 2 2 1 2 1 1 1 1 2 2 1 2 2 2 2 2 2 2 2 1 1 1 1 1 0 1 2 2 3 3 4 4 5
5 4 4 3 3 3 3 3 3 2 1 1 2 2 2 1 1 1 0 2 1 1 1 2 2 2 2 3 2 2 2 2 2 1 2 1 3 2 2 3 4 4 3
3 3 4 4 4 3 3 2 3 2 2 2 3 3 2 1 1 1 1 1 1 1 0 0 1 2 2 2 2 2 1 3 2 2 2 2 2 1 2 3 2 3 4
4 4 4 4 4 3 3 3 3 2 2 3 3 3 1 1 1 1 0 1 1 1 1 0 1 2 2 2 2 2 2 2 3 2 1 1 1 2 2 3 3 3 3
3 2 1 2 1 2 3 3 3 2 2 2 2 2 2 1 1 1 1 1 1 1 2 1 1 2 2 3 3 3 3 3 3 3 3 2 2 3 3 4 4 4 3
3 1 1 1 1 1 2 3 3 2 1 2 2 2 2 2 3 3 2 2 2 2 2 2 2 3 3 3 3 4 4 4 4 4 4 4 4 3 3 3 4 4 3
2 2 3 3 2 2 2 2 2 2 1 1 1 1 2 2 2 3 3 3 3 3 3 3 3 3 3 3 3 3 4 3 4 5 4 4 4 4 4 3 3 3 3
1 1 1 1 2 2 2 2 3 2 2 1 1 1 1 1 2 3 3 3 3 3 3 3 4 4 4 3 3 3 4 4 4 5 5 4 4 4 4 4 4 4 5
0 0 0 1 0 1 0 1 1 2 2 2 2 1 2 2 2 2 3 4 4 4 4 4 4 4 4 3 3 4 4 4 4 4 4 4 4 4 4 4 4 4 5
2 2 1 1 0 0 0 0 0 1 1 2 2 2 3 2 3 3 4 5 5 5 5 5 4 4 4 4 4 5 4 5 4 4 5 5 4 4 4 4 4 4 4
2 2 1 1 0 0 0 1 1 1 2 2 2 2 3 3 3 4 4 5 5 5 5 5 5 5 5 5 5 5 5 5 6 6 5 6 4 5 4 4 5 4 4
1 1 1 1 2 2 2 2 2 2 2 2 2 3 3 3 4 4 5 5 5 4 4 4 5 5 5 6 6 5 5 6 6 6 6 6 5 6 5 5 5 4 4
2 2 2 3 3 2 2 3 3 2 2 2 2 3 3 3 4 4 4 4 4 4 4 5 5 6 6 6 6 5 5 5 5 6 6 6 7 7 7 6 6 5 4
3 3 4 4 3 3 3 3 3 3 2 2 3 3 3 3 3 4 4 4 4 4 4 4 5 5 5 5 5 4 4 5 5 5 6 7 8 9 8 6 5 5 5
4 5 4 3 3 3 3 3 3 3 2 2 3 3 3 3 3 3 4 4 4 4 4 4 5 5 5 7 7 5 4 4 5 6 6 6 7 8 9 10 9 7 7
5 5 4 4 4 4 4 3 3 3 3 3 4 3 3 3 3 3 4 4 4 4 4 4 5 6 6 7 7 6 4 4 5 5 5 5 6 7 6 8 8 8 10
4 4 4 4 4 3 3 3 2 2 3 3 4 4 3 4 3 4 4 4 4 4 4 5 5 5 6 7 7 6 4 4 5 5 5 5 5 5 5 5 5 6 6
5 4 4 4 3 3 2 2 2 2 3 4 4 4 4 4 4 4 5 4 4 4 4 5 5 5 6 7 7 6 4 4 5 5 4 5 5 6 6 5 5 5 4
3 3 3 2 2 2 1 1 2 2 3 4 4 4 4 4 4 5 4 4 4 4 4 4 4 5 5 7 7 5 3 3 3 3 4 5 5 5 5 4 4 5 4
3 3 2 3 3 2 2 2 2 4 4 4 3 3 4 4 4 4 3 3 3 3 4 4 4 5 5 6 7 6 3 3 3 3 3 4 5 5 5 4 4 5 3
3 3 2 3 3 2 1 2 4 4 3 3 3 3 3 3 3 3 3 3 3 3 3 4 4 4 4 5 5 6 5 4 3 3 3 3 5 5 4 3 3 2 1
3 3 2 3 3 2 1 3 4 3 2 2 3 3 3 2 2 3 3 2 2 2 3 3 3 3 3 3 5 5 5 5 3 3 4 4 4 3 2 3 2 2 1
3 3 2 2 3 3 2 3 3 2 2 2 3 3 3 2 2 2 2 2 3 3 3 3 3 3 2 2 2 2 3 3 3 2 3 3 2 2 1 1 2 1 2
3 2 2 3 4 3 3 3 2 2 2 3 3 3 2 2 2 2 2 3 3 3 3 3 3 3 3 4 4 2 2 2 2 1 0 0 0 1 1 1 1 1 1
3 3 3 3 4 3 3 3 3 2 2 3 3 2 2 2 2 2 3 4 4 5 5 5 4 4 4 5 5 4 3 2 2 1 1 1 2 2 2 2 1 1 1
Wind_Direction
229 200 186 160 144 144 159 174 147 151 138 135 154 153 171 179 112 61 73 121 128 138 127 131 138 145 175 186 179 175 180 229 121 57 322 313 278 240 222 204 192 198 204
209 190 186 163 155 165 173 181 179 158 153 152 164 167 173 183 174 53 41 62 92 135 145 142 165 174 178 169 174 154 162 204 140 132 92 293 309 288 251 221 210 217 209
191 188 182 180 175 175 182 185 185 157 143 118 106 90 79 47 33 25 351 355 18 94 122 158 160 174 177 191 197 186 173 202 216 169 155 182 233 285 272 239 229 222 225
172 168 179 178 184 196 184 184 171 155 136 124 117 120 129 194 240 234 239 306 8 359 12 146 167 178 182 199 209 202 212 189 214 235 232 215 196 216 279 295 267 249 239
173 168 178 183 188 191 183 174 151 139 135 130 136 145 167 225 257 215 234 274 308 329 323 333 195 199 202 208 217 224 224 209 214 209 214 229 258 232 228 268 284 290 269
175 164 166 166 181 186 169 155 146 137 135 134 141 150 169 202 271 274 245 272 290 309 312 297 250 237 226 221 221 217 221 227 228 226 215 209 215 223 220 247 262 266 282
168 154 149 181 173 166 170 160 150 149 138 139 163 174 189 202 221 238 230 254 268 284 272 283 256 252 252 240 224 219 225 226 229 233 234 231 233 229 224 234 259 270 281
173 187 185 176 185 174 175 166 160 166 167 177 207 201 202 207 230 245 241 238 245 245 249 265 266 269 269 264 243 239 237 235 234 243 242 243 242 235 232 225 229 264 275
165 191 190 176 182 186 191 181 176 185 196 202 221 225 228 223 231 248 251 242 251 258 256 255 256 266 264 257 248 248 250 249 243 244 245 248 250 238 237 237 228 227 253
270 259 256 264 264 213 225 157 163 184 209 214 223 249 249 247 246 248 265 259 256 257 252 254 253 257 259 258 249 253 251 249 254 251 245 249 254 250 243 240 240 237 238
237 246 261 260 254 93 29 48 203 232 242 236 234 234 244 249 247 257 266 263 257 252 245 246 248 250 252 253 252 251 248 248 256 256 249 250 250 254 254 250 244 243 240
235 228 234 268 315 319 287 280 269 258 258 253 251 251 252 254 256 258 264 264 258 256 250 247 247 250 252 250 246 252 253 245 248 251 248 251 249 248 251 249 246 243 239
287 296 285 269 264 266 271 273 269 264 265 260 259 262 256 251 256 260 266 264 261 265 260 248 247 248 248 248 247 246 244 248 249 248 247 249 244 248 252 251 245 242 243
274 276 280 280 276 269 269 271 271 268 270 266 268 270 266 260 260 265 263 265 260 259 259 257 252 249 247 246 248 248 245 250 254 251 246 245 243 244 246 249 244 238 234
285 274 272 276 276 274 271 265 265 263 261 257 260 263 265 266 272 279 276 270 260 262 259 261 264 259 248 245 252 246 246 250 258 261 256 250 251 251 248 250 242 232 230
274 272 274 276 268 265 269 272 267 264 252 248 256 267 272 270 275 285 285 273 266 266 262 257 259 260 262 271 267 259 247 251 254 262 262 260 255 258 257 255 249 238 232
273 270 262 253 254 254 254 256 259 258 241 244 258 261 263 265 268 278 283 270 262 266 265 258 256 258 264 270 270 268 255 251 251 254 258 264 264 263 255 256 253 250 248
279 273 266 263 264 258 260 262 254 249 246 254 260 263 267 269 264 265 269 267 263 257 254 257 259 261 265 270 270 269 252 250 251 251 249 253 261 264 262 252 251 251 250
266 262 261 260 258 260 261 260 258 254 256 261 258 262 260 260 258 262 264 266 260 256 255 256 255 259 267 268 268 266 243 249 255 258 257 258 255 266 265 256 251 253 262
285 278 281 275 266 266 256 245 263 261 262 265 262 259 256 249 251 252 260 266 261 260 259 262 256 255 259 267 266 264 240 251 259 264 263 266 272 268 265 242 233 238 240
299 297 291 280 262 250 222 238 263 264 272 280 283 275 259 248 254 254 256 259 263 262 260 262 262 255 258 264 262 254 233 233 248 258 266 268 273 272 270 257 238 240 232
315 313 303 297 290 259 220 252 267 278 295 301 298 291 282 261 264 247 256 259 259 265 269 267 273 267 264 267 262 257 248 247 242 254 262 267 271 272 273 270 258 235 219
301 301 291 300 310 300 249 260 283 298 309 309 303 301 297 280 269 250 249 261 253 257 269 269 272 277 273 273 276 266 256 254 255 254 263 273 271 265 261 260 236 217 208
295 301 303 300 303 302 293 279 289 300 303 301 306 309 303 303 301 288 264 256 251 256 266 267 271 278 274 268 264 251 255 258 266 260 264 271 274 275 249 222 238 243 225
297 300 289 284 291 300 298 304 305 299 297 298 303 306 306 305 316 312 300 284 270 266 264 261 255 258 267 271 272 260 243 228 233 233 243 140 232 246 240 226 225 221 212
291 296 294 293 297 303 304 309 309 297 288 298 305 304 307 307 309 315 325 326 315 314 305 298 288 282 280 278 274 267 256 240 214 178 173 208 227 229 230 230 252 254 232
Height
1490 1491 1492 1493 1494 1496 1498 1499 1500 1501 1503 1504 1505 1505 1506 1508 1509 1510 1511 1512 1512 1513 1513 1514 1515 1516 1516 1517 1517 1518 1518 1519 1519 1519 1519 1519 1519 1519 1520 1520 1521 1521 1522
1487 1488 1490 1490 1492 1493 1495 1496 1497 1499 1500 1501 1502 1503 1504 1504 1506 1507 1508 1508 1509 1510 1510 1511 1511 1512 1512 1513 1514 1514 1514 1515 1515 1516 1515 1515 1516 1515 1516 1516 1517 1518 1518
1484 1485 1487 1488 1489 1491 1492 1493 1495 1496 1497 1498 1500 1501 1501 1502 1502 1503 1504 1505 1506 1506 1507 1507 1508 1508 1508 1509 1509 1510 1510 1510 1511 1512 1513 1513 1511 1511 1511 1512 1513 1513 1514
1482 1482 1484 1485 1486 1487 1489 1491 1492 1493 1494 1495 1496 1497 1497 1497 1498 1499 1500 1501 1502 1502 1503 1503 1503 1504 1504 1505 1505 1506 1506 1507 1507 1508 1509 1510 1509 1509 1507 1508 1509 1509 1509
1480 1480 1481 1482 1484 1485 1486 1488 1489 1490 1491 1492 1493 1494 1495 1495 1495 1496 1497 1498 1498 1498 1498 1499 1499 1500 1500 1501 1501 1502 1502 1503 1503 1503 1504 1505 1505 1505 1505 1503 1504 1504 1505
1478 1478 1480 1481 1482 1483 1484 1484 1486 1487 1488 1489 1490 1491 1491 1491 1492 1492 1492 1493 1494 1494 1494 1495 1495 1495 1496 1496 1497 1498 1498 1499 1499 1500 1500 1501 1501 1501 1501 1500 1499 1499 1500
1475 1476 1477 1478 1479 1480 1481 1481 1483 1484 1485 1486 1487 1487 1487 1488 1488 1488 1488 1488 1489 1489 1489 1490 1491 1491 1492 1492 1493 1493 1494 1494 1495 1496 1496 1496 1497 1497 1497 1497 1496 1495 1494
1475 1475 1476 1476 1477 1477 1478 1479 1480 1480 1482 1482 1483 1483 1484 1484 1484 1484 1484 1484 1484 1484 1485 1485 1486 1487 1487 1488 1488 1488 1489 1490 1490 1491 1491 1492 1492 1493 1493 1493 1492 1490 1490
1474 1474 1474 1475 1475 1475 1476 1476 1477 1477 1478 1479 1479 1480 1480 1480 1480 1480 1480 1480 1480 1480 1480 1481 1481 1482 1482 1483 1483 1483 1484 1485 1485 1486 1486 1486 1487 1488 1488 1488 1488 1488 1485
1473 1473 1473 1473 1473 1474 1474 1474 1474 1474 1474 1475 1475 1475 1475 1475 1475 1476 1475 1475 1476 1476 1476 1476 1476 1477 1477 1478 1478 1478 1479 1480 1480 1481 1481 1481 1482 1482 1483 1483 1483 1483 1482
1472 1472 1472 1472 1472 1471 1471 1471 1471 1471 1471 1471 1471 1471 1471 1471 1471 1471 1471 1471 1471 1471 1471 1471 1471 1471 1472 1473 1473 1473 1474 1474 1475 1475 1475 1475 1476 1476 1477 1477 1477 1477 1477
1471 1471 1471 1470 1469 1469 1468 1468 1468 1467 1467 1467 1467 1467 1467 1466 1466 1466 1466 1466 1466 1466 1466 1466 1466 1466 1467 1467 1468 1468 1469 1469 1469 1469 1470 1470 1471 1471 1471 1472 1471 1472 1471
1469 1469 1468 1467 1467 1466 1465 1465 1464 1464 1464 1463 1463 1463 1462 1462 1461 1461 1461 1461 1461 1461 1461 1461 1461 1461 1462 1462 1463 1463 1463 1463 1464 1464 1464 1464 1465 1465 1465 1466 1466 1466 1466
1467 1466 1465 1465 1464 1463 1462 1461 1461 1460 1460 1459 1459 1458 1457 1457 1457 1456 1456 1456 1456 1456 1456 1456 1456 1456 1456 1457 1458 1458 1458 1458 1458 1459 1459 1459 1459 1459 1459 1460 1460 1460 1460
1465 1464 1462 1461 1460 1459 1458 1458 1457 1457 1456 1456 1455 1454 1454 1453 1453 1452 1451 1451 1451 1451 1451 1451 1451 1452 1452 1452 1453 1453 1453 1453 1453 1453 1453 1453 1453 1453 1454 1454 1454 1454 1454
1462 1460 1459 1457 1456 1455 1454 1454 1453 1453 1452 1452 1451 1451 1450 1449 1448 1447 1447 1447 1447 1447 1447 1447 1447 1447 1447 1447 1448 1448 1448 1447 1447 1447 1447 1447 1447 1448 1448 1448 1448 1449 1449
1459 1457 1455 1454 1453 1452 1451 1449 1449 1448 1448 1448 1447 1447 1446 1445 1445 1444 1444 1444 1443 1442 1443 1442 1442 1442 1442 1442 1443 1443 1443 1442 1442 1442 1442 1442 1442 1442 1441 1441 1442 1442 1442
1455 1453 1452 1451 1449 1448 1447 1446 1445 1444 1444 1443 1443 1443 1442 1442 1441 1441 1440 1440 1439 1438 1438 1438 1437 1437 1437 1437 1438 1438 1438 1437 1437 1437 1436 1436 1436 1436 1436 1435 1435 1435 1435
1453 1451 1450 1448 1446 1445 1444 1443 1442 1441 1440 1439 1438 1438 1438 1438 1437 1437 1436 1435 1435 1434 1433 1433 1433 1432 1432 1432 1432 1433 1432 1432 1432 1431 1431 1431 1431 1431 1430 1430 1429 1429 1429
1450 1448 1447 1445 1443 1442 1440 1439 1438 1437 1436 1435 1434 1434 1434 1434 1433 1433 1432 1431 1430 1430 1429 1429 1429 1428 1427 1427 1428 1428 1427 1427 1426 1426 1426 1426 1425 1425 1425 1424 1423 1423 1423
1447 1446 1444 1442 1440 1439 1437 1436 1434 1433 1432 1432 1431 1431 1430 1430 1429 1429 1428 1427 1427 1426 1425 1425 1424 1424 1423 1423 1423 1423 1423 1422 1421 1421 1420 1421 1421 1420 1420 1419 1419 1418 1419
1444 1443 1441 1439 1437 1436 1434 1432 1431 1430 1430 1428 1428 1427 1426 1426 1426 1425 1424 1424 1423 1422 1421 1420 1419 1419 1419 1418 1418 1418 1418 1418 1417 1416 1416 1416 1416 1416 1415 1415 1414 1414 1415
1442 1440 1438 1436 1435 1433 1432 1430 1429 1428 1427 1426 1425 1424 1423 1423 1422 1421 1420 1420 1419 1418 1417 1416 1415 1414 1414 1414 1414 1414 1413 1413 1412 1412 1412 1412 1412 1411 1410 1410 1410 1410 1410
1439 1438 1436 1434 1433 1431 1430 1429 1428 1426 1424 1423 1422 1421 1420 1419 1419 1418 1417 1416 1415 1414 1413 1412 1411 1410 1410 1409 1409 1409 1409 1408 1408 1408 1408 1408 1407 1407 1406 1406 1406 1406 1406
1437 1436 1434 1432 1431 1429 1428 1427 1425 1424 1422 1421 1420 1419 1418 1417 1416 1415 1414 1413 1412 1411 1410 1409 1408 1407 1406 1406 1406 1405 1405 1404 1404 1404 1403 1403 1403 1402 1402 1402 1402 1403 1403
1435 1433 1432 1430 1429 1427 1426 1424 1423 1422 1420 1418 1417 1416 1415 1414 1413 1412 1411 1410 1409 1408 1407 1406 1406 1404 1404 1403 1402 1402 1401 1401 1401 1401 1399 1399 1399 1398 1398 1398 1398 1399 1400